Showing default

BUGSAT 1, 40014

Orbit data source: Space-Track

BUGSAT 1, 40014 is a payload satellite owned by Satellogic SA (AR) in SSO that was launched on Thu, 19 Jun 2014 UTC via a DNEPR launch vehicle from the Orenburg, Russia (OREN). Payload-class satellites include a variety of spacecraft equipped with specific instruments for various scientific and technological missions. These include communications satellites like Starlink; space stations such as the ISS; scientific satellites like the Hubble; Earth observation satellites from companies like Planet Labs, Umbra, and HawkEye 360; GPS; miniature CubeSats for education and research; and military/defense satellites.

Loading next visibility...
Identifier
40014, 2014-033E
Orbit
SSO
Country
Flag of UnknownUnknown / ARGN
Related business
Manufacturer
Satellogic SA
Mission
Operational Commercial Imaging
Bus & Motor
BUGSAT, Unknown motor
Mass
22 kg wet, 22 kg dry
Launch date (UTC)
2014-06-19 (11 years ago)
Launch vehicle
DNEPR
Launch site
Orenburg, Russia (OREN)
Object type
Payload
Rocket body
Debris
Shape & HBR
Box, 1.0 m
Radar Cross Section
0.263 m², Medium (>0.1 m² and < 1m²)

Expand to show TLE details & history
Last TLE update: 16 hours ago

TLE from 16 hours ago
0 BUGSAT 1
1 40014U 14033E   25348.96973309  .00005681  00000-0  31944-3 0  9992
2 40014  98.0563  65.9931 0030563  89.2946 271.1785 15.13323025627955
Epoch: 2025-12-14T23:16Z
TLE epoch observation values (Epoch: 2025-12-14T23:16:24.938Z)
Latitude
-0.0001°
Longitude
-6.98582°
Altitude
528.767 km
Speed
7.599 km/s
True Right ascension
04h 23m 58s
True Declination
0° 00' 00"
Sunlit
Object was in full shadow at epoch
Visualization orbit readout
Latitude
Unknown
Longitude
Unknown
Altitude
Unknown
Speed
Unknown
Apparent Right ascension
Unknown
Apparent Declination
Unknown
Sunlit
N/A
Visualization observer readout
Local Sidereal Time
13:24:36
Azimuth
Unknown
Elevation
Unknown
Doppler factor
Unknown
Orbital elements
Apogee altitude
544.17 km
Perigee altitude
501.986 km
Semi-major axis
6,901.215 km
Eccentricity
0.00306
Inclination
98.0563°
RAAN
65.9931°
Arg. of periapsis
89.2946°
True anomaly
270.82832°
Mean anomaly
271.1785°
Eccentric anomaly
271.00341°
Mean motion
3.78578 °/min
Orbital period
95.09 mins
BSTAR
0.00031944
Loading maneuver chart data...
Computing Atmospheric mass density...
Loading historical data...
Loading historical data...
Loading historical data...
Loading historical data...
Loading historical data...
Loading historical data...
Loading historical data...

Documentation

Showing up to 5 results
|